Nordic Philip — 5BZH2 — position and weather

sailwx.info

Track history (hours):
 
Tides and Currents Weather Stations Pressure Air Temp Water Temp Dewpoint Dewpoint Depression Visibility Wind Speed Wind Dir Waves Ship Positions

Nordic Philip

Last reported at 2014-Jul-30 18:33 UTC. Time now 2014-Jul-30 19:21 UTC.
Position N 53°30' E 004°45'.

Length 151 m; draft 8.3 m.

Type: Ship (hazmat cat A). MMSI: 212018000.

Date/timePositionNaut miles runAvg speedWind from/ knotsBaromVisibWave heightAir tempDewpointWater temp
2014-Jul-30 18:33N 53°30' E 004°45'1312.7
2014-Jul-30 17:34N 53°35' E 005°05'1514.6
2014-Jul-30 16:34N 53°39' E 005°29'1515.2
2014-Jul-30 15:34N 53°44' E 005°53'5914.1
2014-Jul-30 11:22N 53°60' E 007°30'1113.0
2014-Jul-30 10:33N 54°01' E 007°47'1413.0
2014-Jul-30 09:26N 54°00' E 008°12'1314.6
2014-Jul-30 08:33N 53°58' E 008°34'1515.0
2014-Jul-30 07:33N 53°51' E 008°56'8 8.2
2014-Jul-30 06:33N 53°54' E 009°09'7 7.1
2014-Jul-30 05:33N 53°59' E 009°17'9 8.4
2014-Jul-30 04:33N 54°07' E 009°20'8 8.3
2014-Jul-30 03:34N 54°12' E 009°32'24 5.7
2014-Jul-29 23:23N 54°22' E 010°09'26 9.2
2014-Jul-29 20:31N 54°35' E 010°48'1515.3
2014-Jul-29 19:33N 54°35' E 011°13'1515.4
2014-Jul-29 18:33N 54°29' E 011°37'1514.7
2014-Jul-29 17:33N 54°26' E 012°02'1413.5
2014-Jul-29 16:33N 54°37' E 012°16'1615.8
2014-Jul-29 15:33N 54°46' E 012°38'1615.6
2014-Jul-29 14:33N 54°52' E 013°03'1616.0
2014-Jul-29 13:33N 54°57' E 013°30'1616.0
2014-Jul-29 12:33N 55°03' E 013°56'1615.8
2014-Jul-29 11:33N 55°13' E 014°18'1616.3
2014-Jul-29 10:33N 55°25' E 014°35'1615.8
2014-Jul-29 09:34N 55°34' E 014°58'1615.9
2014-Jul-29 08:33N 55°42' E 015°23'1616.2
2014-Jul-29 07:33N 55°50' E 015°48'1616.2
2014-Jul-29 06:34N 55°58' E 016°13'1616.1
2014-Jul-29 05:33N 56°06' E 016°38'1615.7
2014-Jul-29 04:33N 56°15' E 017°01'1615.5
2014-Jul-29 03:33N 56°25' E 017°23'1615.7
2014-Jul-29 02:33N 56°34' E 017°46'1615.8
2014-Jul-29 01:33N 56°44' E 018°08'1615.8
2014-Jul-29 00:33N 56°54' E 018°30'1615.7
2014-Jul-28 23:33N 57°07' E 018°48'1616.0
2014-Jul-28 22:33N 57°20' E 019°05'2016.1
2014-Jul-28 21:19N 57°36' E 019°27'15315.6
2014-Jul-28 11:33N 59°31' E 022°39'1515.7
2014-Jul-28 10:33N 59°35' E 023°08'1615.8
2014-Jul-28 09:33N 59°40' E 023°38'1615.7
2014-Jul-28 08:33N 59°44' E 024°08'1615.9
2014-Jul-28 07:31N 59°49' E 024°40'1615.7
2014-Jul-28 06:29N 59°53' E 025°11'1515.9
2014-Jul-28 05:33N 59°55' E 025°40'1615.8
2014-Jul-28 04:33N 59°59' E 026°11'1615.7
2014-Jul-28 03:33N 60°01' E 026°42'1514.9
2014-Jul-28 02:33N 60°02' E 027°12'1615.5
2014-Jul-28 01:33N 60°10' E 027°38'1514.7
2014-Jul-28 00:33N 60°09' E 028°08'64 1.9
2014-Jul-26 14:30N 59°53' E 030°12'7 6.6
2014-Jul-26 13:28N 59°55' E 029°59'85 4.3
2014-Jul-25 17:30N 59°60' E 027°10'1313.7
2014-Jul-25 16:33N 59°59' E 026°44'1414.5
2014-Jul-25 15:34N 59°56' E 026°15'1414.3
2014-Jul-25 14:34N 59°53' E 025°48'1414.2
2014-Jul-25 13:33N 59°49' E 025°20'1414.2
2014-Jul-25 12:34N 59°46' E 024°53'1614.3
2014-Jul-25 11:28N 59°43' E 024°23'1314.3
2014-Jul-25 10:33N 59°39' E 023°58'1413.9
2014-Jul-25 09:33N 59°34' E 023°32'1414.3
2014-Jul-25 08:33N 59°29' E 023°05'1514.6
2014-Jul-25 07:33N 59°25' E 022°38'1514.5
2014-Jul-25 06:32N 59°16' E 022°15'1414.3
2014-Jul-25 05:33N 59°08' E 021°52'1414.4
2014-Jul-25 04:33N 58°57' E 021°34'1414.3
2014-Jul-25 03:33N 58°46' E 021°17'1414.3
2014-Jul-25 02:33N 58°34' E 021°01'1414.4
2014-Jul-25 01:33N 58°23' E 020°44'2914.5
2014-Jul-24 23:31N 57°59' E 020°11'2914.8
2014-Jul-24 21:33N 57°35' E 019°39'1514.7
2014-Jul-24 20:33N 57°24' E 019°21'1514.7
2014-Jul-24 19:33N 57°13' E 019°05'1514.8
2014-Jul-24 18:33N 57°01' E 018°48'1514.8
2014-Jul-24 17:33N 56°49' E 018°31'1514.6
2014-Jul-24 16:33N 56°40' E 018°11'1514.9
2014-Jul-24 15:33N 56°31' E 017°49'1514.6
2014-Jul-24 14:33N 56°22' E 017°28'1514.6
2014-Jul-24 13:33N 56°13' E 017°07'1514.5
2014-Jul-24 12:33N 56°04' E 016°47'1414.5
2014-Jul-24 11:33N 55°56' E 016°25'1414.5
2014-Jul-24 10:33N 55°50' E 016°02'1414.5
2014-Jul-24 09:33N 55°43' E 015°39'1414.2
2014-Jul-24 08:33N 55°36' E 015°18'1414.1
2014-Jul-24 07:33N 55°29' E 014°56'1414.1
2014-Jul-24 06:33N 55°21' E 014°35'1414.5
2014-Jul-24 05:33N 55°10' E 014°19'1414.1
2014-Jul-24 04:33N 55°00' E 014°01'1514.7
2014-Jul-24 03:33N 54°56' E 013°37'1414.4
2014-Jul-24 02:33N 54°50' E 013°13'1514.5
2014-Jul-24 01:33N 54°45' E 012°50'1414.5
2014-Jul-24 00:33N 54°39' E 012°27'1313.0
2014-Jul-23 23:33N 54°28' E 012°14'1212.0
2014-Jul-23 22:33N 54°25' E 011°55'1414.1
2014-Jul-23 21:33N 54°29' E 011°32'1414.2
2014-Jul-23 20:33N 54°35' E 011°10'1413.9
2014-Jul-23 19:32N 54°34' E 010°45'1813.7
2014-Jul-23 18:14N 54°28' E 010°16'34 5.7
2014-Jul-23 12:09N 54°10' E 009°26'5 7.5
2014-Jul-23 11:27N 54°07' E 009°20'8 8.0
2014-Jul-23 10:30N 53°59' E 009°17'7 6.9
2014-Jul-23 09:31N 53°54' E 009°09'1 1.5
2014-Jul-23 08:33N 53°53' E 009°07'4 3.5
2014-Jul-23 07:32N 53°53' E 009°13'1413.7
2014-Jul-23 06:33N 53°43' E 009°29'1312.8
2014-Jul-23 05:33N 53°34' E 009°44'7 6.9
2014-Jul-23 04:31N 53°32' E 009°55'0 0.0
2014-Jul-23 03:31N 53°32' E 009°55'0 0.0
2014-Jul-23 02:31N 53°32' E 009°55'0 0.0
2014-Jul-23 01:31N 53°32' E 009°55'0 0.0
2014-Jul-23 00:31N 53°32' E 009°55'0 0.0
2014-Jul-22 23:31N 53°32' E 009°55'0 0.0
2014-Jul-22 22:31N 53°32' E 009°55'0 0.1
2014-Jul-22 21:28N 53°32' E 009°55'1 1.5
2014-Jul-22 20:33N 53°30' E 009°56'0 0.0
2014-Jul-22 19:33N 53°30' E 009°56'0 0.0
2014-Jul-22 18:30N 53°30' E 009°56'0 0.0
2014-Jul-22 17:30N 53°30' E 009°56'0 0.0
2014-Jul-22 16:30N 53°30' E 009°56'0 0.0
2014-Jul-22 15:33N 53°30' E 009°56'0 0.0
2014-Jul-22 14:33N 53°30' E 009°56'0 0.0
2014-Jul-22 12:27N 53°30' E 009°56'0 0.0
2014-Jul-22 11:30N 53°30' E 009°56'0 0.0
2014-Jul-22 10:30N 53°30' E 009°56'0 0.0
2014-Jul-22 09:33N 53°30' E 009°56'0 0.0
2014-Jul-22 08:33N 53°30' E 009°56'0 0.0
2014-Jul-22 07:30N 53°30' E 009°56'0 0.0
2014-Jul-22 06:33N 53°30' E 009°56'0 0.0
2014-Jul-22 05:30N 53°30' E 009°56'0 0.0
2014-Jul-22 04:24N 53°30' E 009°56'0 0.0
2014-Jul-22 03:33N 53°30' E 009°56'0 0.0
2014-Jul-22 02:33N 53°30' E 009°56'0 0.0
2014-Jul-22 01:30N 53°30' E 009°56'0 0.0
2014-Jul-22 00:30N 53°30' E 009°56'0 0.0
2014-Jul-21 23:33N 53°30' E 009°56'0 0.0
2014-Jul-21 22:33N 53°30' E 009°56'1 1.0
2014-Jul-21 21:33N 53°31' E 009°56'8 8.1
2014-Jul-21 20:34N 53°34' E 009°43'414.1
2014-Jul-21 20:18N 53°35' E 009°37'1316.9
2014-Jul-21 19:33N 53°45' E 009°25'1312.8
2014-Jul-21 18:33N 53°54' E 009°09'1 0.7
2014-Jul-21 17:33N 53°54' E 009°09'4 3.9
2014-Jul-21 16:33N 53°57' E 009°14'8 7.9
2014-Jul-21 15:31N 54°05' E 009°19'8 7.6
2014-Jul-21 14:32N 54°10' E 009°27'4 3.7
2014-Jul-21 13:30N 54°12' E 009°33'49 5.4
2014-Jul-21 04:28N 54°35' E 010°47'1313.9
2014-Jul-21 03:34N 54°36' E 011°09'1514.7
2014-Jul-21 02:34N 54°30' E 011°32'1514.6
2014-Jul-21 01:34N 54°27' E 011°56'1212.4
2014-Jul-21 00:33N 54°33' E 012°15'1515.4
2014-Jul-20 23:33N 54°44' E 012°33'1414.2
2014-Jul-20 22:34N 54°47' E 012°57'1615.5
2014-Jul-20 21:34N 54°47' E 013°24'1514.9
2014-Jul-20 20:33N 54°44' E 013°49'1514.9
2014-Jul-20 19:33N 54°39' E 014°14'1514.7
2014-Jul-20 18:34N 54°39' E 014°39'  
Track history (hours):
 
Tides and Currents Weather Stations Pressure Air Temp Water Temp Dewpoint Dewpoint Depression Visibility Wind Speed Wind Dir Waves Ship Positions

Nordic Philip

Last reported at 2014-Jul-30 18:33 UTC. Time now 2014-Jul-30 19:21 UTC.
Position N 53°30' E 004°45'.

Length 151 m; draft 8.3 m.

Type: Ship (hazmat cat A). MMSI: 212018000.

Date/timePositionNaut miles runAvg speedWind from/ knotsBaromVisibWave heightAir tempDewpointWater temp
2014-Jul-30 18:33N 53°30' E 004°45'1312.7
2014-Jul-30 17:34N 53°35' E 005°05'1514.6
2014-Jul-30 16:34N 53°39' E 005°29'1515.2
2014-Jul-30 15:34N 53°44' E 005°53'5914.1
2014-Jul-30 11:22N 53°60' E 007°30'1113.0
2014-Jul-30 10:33N 54°01' E 007°47'1413.0
2014-Jul-30 09:26N 54°00' E 008°12'1314.6
2014-Jul-30 08:33N 53°58' E 008°34'1515.0
2014-Jul-30 07:33N 53°51' E 008°56'8 8.2
2014-Jul-30 06:33N 53°54' E 009°09'7 7.1
2014-Jul-30 05:33N 53°59' E 009°17'9 8.4
2014-Jul-30 04:33N 54°07' E 009°20'8 8.3
2014-Jul-30 03:34N 54°12' E 009°32'24 5.7
2014-Jul-29 23:23N 54°22' E 010°09'26 9.2
2014-Jul-29 20:31N 54°35' E 010°48'1515.3
2014-Jul-29 19:33N 54°35' E 011°13'1515.4
2014-Jul-29 18:33N 54°29' E 011°37'1514.7
2014-Jul-29 17:33N 54°26' E 012°02'1413.5
2014-Jul-29 16:33N 54°37' E 012°16'1615.8
2014-Jul-29 15:33N 54°46' E 012°38'1615.6
2014-Jul-29 14:33N 54°52' E 013°03'1616.0
2014-Jul-29 13:33N 54°57' E 013°30'1616.0
2014-Jul-29 12:33N 55°03' E 013°56'1615.8
2014-Jul-29 11:33N 55°13' E 014°18'1616.3
2014-Jul-29 10:33N 55°25' E 014°35'1615.8
2014-Jul-29 09:34N 55°34' E 014°58'1615.9
2014-Jul-29 08:33N 55°42' E 015°23'1616.2
2014-Jul-29 07:33N 55°50' E 015°48'1616.2
2014-Jul-29 06:34N 55°58' E 016°13'1616.1
2014-Jul-29 05:33N 56°06' E 016°38'1615.7
2014-Jul-29 04:33N 56°15' E 017°01'1615.5
2014-Jul-29 03:33N 56°25' E 017°23'1615.7
2014-Jul-29 02:33N 56°34' E 017°46'1615.8
2014-Jul-29 01:33N 56°44' E 018°08'1615.8
2014-Jul-29 00:33N 56°54' E 018°30'1615.7
2014-Jul-28 23:33N 57°07' E 018°48'1616.0
2014-Jul-28 22:33N 57°20' E 019°05'2016.1
2014-Jul-28 21:19N 57°36' E 019°27'15315.6
2014-Jul-28 11:33N 59°31' E 022°39'1515.7
2014-Jul-28 10:33N 59°35' E 023°08'1615.8
2014-Jul-28 09:33N 59°40' E 023°38'1615.7
2014-Jul-28 08:33N 59°44' E 024°08'1615.9
2014-Jul-28 07:31N 59°49' E 024°40'1615.7
2014-Jul-28 06:29N 59°53' E 025°11'1515.9
2014-Jul-28 05:33N 59°55' E 025°40'1615.8
2014-Jul-28 04:33N 59°59' E 026°11'1615.7
2014-Jul-28 03:33N 60°01' E 026°42'1514.9
2014-Jul-28 02:33N 60°02' E 027°12'1615.5
2014-Jul-28 01:33N 60°10' E 027°38'1514.7
2014-Jul-28 00:33N 60°09' E 028°08'64 1.9
2014-Jul-26 14:30N 59°53' E 030°12'7 6.6
2014-Jul-26 13:28N 59°55' E 029°59'85 4.3
2014-Jul-25 17:30N 59°60' E 027°10'1313.7
2014-Jul-25 16:33N 59°59' E 026°44'1414.5
2014-Jul-25 15:34N 59°56' E 026°15'1414.3
2014-Jul-25 14:34N 59°53' E 025°48'1414.2
2014-Jul-25 13:33N 59°49' E 025°20'1414.2
2014-Jul-25 12:34N 59°46' E 024°53'1614.3
2014-Jul-25 11:28N 59°43' E 024°23'1314.3
2014-Jul-25 10:33N 59°39' E 023°58'1413.9
2014-Jul-25 09:33N 59°34' E 023°32'1414.3
2014-Jul-25 08:33N 59°29' E 023°05'1514.6
2014-Jul-25 07:33N 59°25' E 022°38'1514.5
2014-Jul-25 06:32N 59°16' E 022°15'1414.3
2014-Jul-25 05:33N 59°08' E 021°52'1414.4
2014-Jul-25 04:33N 58°57' E 021°34'1414.3
2014-Jul-25 03:33N 58°46' E 021°17'1414.3
2014-Jul-25 02:33N 58°34' E 021°01'1414.4
2014-Jul-25 01:33N 58°23' E 020°44'2914.5
2014-Jul-24 23:31N 57°59' E 020°11'2914.8
2014-Jul-24 21:33N 57°35' E 019°39'1514.7
2014-Jul-24 20:33N 57°24' E 019°21'1514.7
2014-Jul-24 19:33N 57°13' E 019°05'1514.8
2014-Jul-24 18:33N 57°01' E 018°48'1514.8
2014-Jul-24 17:33N 56°49' E 018°31'1514.6
2014-Jul-24 16:33N 56°40' E 018°11'1514.9
2014-Jul-24 15:33N 56°31' E 017°49'1514.6
2014-Jul-24 14:33N 56°22' E 017°28'1514.6
2014-Jul-24 13:33N 56°13' E 017°07'1514.5
2014-Jul-24 12:33N 56°04' E 016°47'1414.5
2014-Jul-24 11:33N 55°56' E 016°25'1414.5
2014-Jul-24 10:33N 55°50' E 016°02'1414.5
2014-Jul-24 09:33N 55°43' E 015°39'1414.2
2014-Jul-24 08:33N 55°36' E 015°18'1414.1
2014-Jul-24 07:33N 55°29' E 014°56'1414.1
2014-Jul-24 06:33N 55°21' E 014°35'1414.5
2014-Jul-24 05:33N 55°10' E 014°19'1414.1
2014-Jul-24 04:33N 55°00' E 014°01'1514.7
2014-Jul-24 03:33N 54°56' E 013°37'1414.4
2014-Jul-24 02:33N 54°50' E 013°13'1514.5
2014-Jul-24 01:33N 54°45' E 012°50'1414.5
2014-Jul-24 00:33N 54°39' E 012°27'1313.0
2014-Jul-23 23:33N 54°28' E 012°14'1212.0
2014-Jul-23 22:33N 54°25' E 011°55'1414.1
2014-Jul-23 21:33N 54°29' E 011°32'1414.2
2014-Jul-23 20:33N 54°35' E 011°10'1413.9
2014-Jul-23 19:32N 54°34' E 010°45'1813.7
2014-Jul-23 18:14N 54°28' E 010°16'34 5.7
2014-Jul-23 12:09N 54°10' E 009°26'5 7.5
2014-Jul-23 11:27N 54°07' E 009°20'8 8.0
2014-Jul-23 10:30N 53°59' E 009°17'7 6.9
2014-Jul-23 09:31N 53°54' E 009°09'1 1.5
2014-Jul-23 08:33N 53°53' E 009°07'4 3.5
2014-Jul-23 07:32N 53°53' E 009°13'1413.7
2014-Jul-23 06:33N 53°43' E 009°29'1312.8
2014-Jul-23 05:33N 53°34' E 009°44'7 6.9
2014-Jul-23 04:31N 53°32' E 009°55'0 0.0
2014-Jul-23 03:31N 53°32' E 009°55'0 0.0
2014-Jul-23 02:31N 53°32' E 009°55'0 0.0
2014-Jul-23 01:31N 53°32' E 009°55'0 0.0
2014-Jul-23 00:31N 53°32' E 009°55'0 0.0
2014-Jul-22 23:31N 53°32' E 009°55'0 0.0
2014-Jul-22 22:31N 53°32' E 009°55'0 0.1
2014-Jul-22 21:28N 53°32' E 009°55'1 1.5
2014-Jul-22 20:33N 53°30' E 009°56'0 0.0
2014-Jul-22 19:33N 53°30' E 009°56'0 0.0
2014-Jul-22 18:30N 53°30' E 009°56'0 0.0
2014-Jul-22 17:30N 53°30' E 009°56'0 0.0
2014-Jul-22 16:30N 53°30' E 009°56'0 0.0
2014-Jul-22 15:33N 53°30' E 009°56'0 0.0
2014-Jul-22 14:33N 53°30' E 009°56'0 0.0
2014-Jul-22 12:27N 53°30' E 009°56'0 0.0
2014-Jul-22 11:30N 53°30' E 009°56'0 0.0
2014-Jul-22 10:30N 53°30' E 009°56'0 0.0
2014-Jul-22 09:33N 53°30' E 009°56'0 0.0
2014-Jul-22 08:33N 53°30' E 009°56'0 0.0
2014-Jul-22 07:30N 53°30' E 009°56'0 0.0
2014-Jul-22 06:33N 53°30' E 009°56'0 0.0
2014-Jul-22 05:30N 53°30' E 009°56'0 0.0
2014-Jul-22 04:24N 53°30' E 009°56'0 0.0
2014-Jul-22 03:33N 53°30' E 009°56'0 0.0
2014-Jul-22 02:33N 53°30' E 009°56'0 0.0
2014-Jul-22 01:30N 53°30' E 009°56'0 0.0
2014-Jul-22 00:30N 53°30' E 009°56'0 0.0
2014-Jul-21 23:33N 53°30' E 009°56'0 0.0
2014-Jul-21 22:33N 53°30' E 009°56'1 1.0
2014-Jul-21 21:33N 53°31' E 009°56'8 8.1
2014-Jul-21 20:34N 53°34' E 009°43'414.1
2014-Jul-21 20:18N 53°35' E 009°37'1316.9
2014-Jul-21 19:33N 53°45' E 009°25'1312.8
2014-Jul-21 18:33N 53°54' E 009°09'1 0.7
2014-Jul-21 17:33N 53°54' E 009°09'4 3.9
2014-Jul-21 16:33N 53°57' E 009°14'8 7.9
2014-Jul-21 15:31N 54°05' E 009°19'8 7.6
2014-Jul-21 14:32N 54°10' E 009°27'4 3.7
2014-Jul-21 13:30N 54°12' E 009°33'49 5.4
2014-Jul-21 04:28N 54°35' E 010°47'1313.9
2014-Jul-21 03:34N 54°36' E 011°09'1514.7
2014-Jul-21 02:34N 54°30' E 011°32'1514.6
2014-Jul-21 01:34N 54°27' E 011°56'1212.4
2014-Jul-21 00:33N 54°33' E 012°15'1515.4
2014-Jul-20 23:33N 54°44' E 012°33'1414.2
2014-Jul-20 22:34N 54°47' E 012°57'1615.5
2014-Jul-20 21:34N 54°47' E 013°24'1514.9
2014-Jul-20 20:33N 54°44' E 013°49'1514.9
2014-Jul-20 19:33N 54°39' E 014°14'1514.7
2014-Jul-20 18:34N 54°39' E 014°39'  

Dump ship's entire track history